Location: Hilton Head Island
(32.2163°N, 80.7526°W)
Time: 15:27:14
(UTC-04:00)

Tiros 1 despin weight - Pass Details

Date: 18 February 2026
Orbit: 556 x 593 km, 48.2° (Epoch: 10 March)

Event Time Altitude Azimuth Distance (km) Brightness Sun altitude
Rises 16:53:11 0° 295° (WNW) 2,734 ? 14.9°
Reaches altitude 10° 16:57:27 10° 337° (NNW) 1,836 ? 14.1°
Maximum altitude 16:58:16 10° 348° (NNW) 1,806 ? 13.9°
Drops below altitude 10° 16:59:05 10° 359° (N) 1,836 ? 13.8°
Sets 17:03:21 0° 41° (NE) 2,732 ? 12.9°
